SCP
0 0 0 0 0 0 0 0 0 0 0 0 1 1 1 1 1 1 1 2 1 2 2 1 1 1 0 0 0 0 0 0 0 0 0 0 0 0 0 0 0 0 0 0
0 0 0 0 0 0 0 0 0 0 0 1 0 0 0 0 0 1 1 0 1 1 1 1 2 1 1 1 1 0 0 0 0 0 0 0 0 0 0 0 0 0 0 0
0 0 0 0 0 0 0 0 0 0 1 1 0 0 0 0 0 0 0 0 0 0 0 1 1 1 1 1 0 0 0 0 0 0 0 0 0 0 0 0 0 0 0 0
0 0 0 0 0 0 0 0 0 0 0 0 0 0 0 0 0 0 0 0 0 0 0 0 1 1 1 1 1 1 0 0 1 1 0 0 1 1 1 1 1 0 0 0
0 0 0 0 0 0 0 0 0 1 0 0 0 0 1 0 0 0 0 0 0 0 0 0 0 0 0 2 1 1 0 1 0 0 1 0 0 1 1 1 1 0 0 0
0 0 0 0 0 0 0 0 1 1 1 1 0 1 1 0 0 0 0 0 0 0 0 0 0 0 0 1 2 1 1 1 1 0 0 0 0 1 1 1 1 0 0 0
0 0 0 0 0 0 0 0 0 0 0 1 1 1 0 0 0 0 0 0 0 0 0 0 0 0 0 0 1 1 1 2 4 2 1 0 0 1 1 1 1 0 0 0
0 0 0 0 0 1 0 0 0 0 0 1 1 0 0 0 0 0 0 0 0 0 0 0 0 0 0 1 0 0 2 2 2 2 3 1 1 1 0 1 1 1 1 1
0 0 0 0 0 0 0 0 0 0 0 0 0 0 0 0 0 0 0 0 0 1 0 0 0 0 0 0 0 1 2 2 2 1 1 2 2 2 1 1 0 0 1 1
0 0 0 0 0 0 0 0 0 0 0 0 0 1 0 0 0 0 0 0 0 1 1 0 0 0 0 0 0 0 0 1 1 2 1 1 1 1 1 2 2 1 1 1
0 0 0 0 0 0 0 0 0 0 0 0 0 0 0 0 0 0 0 0 0 0 1 0 0 0 0 0 0 0 1 0 0 0 1 0 0 0 0 0 0 0 0 2
0 0 0 0 0 0 0 0 0 0 0 0 0 0 0 0 0 0 0 0 0 0 0 0 0 0 0 0 0 0 0 0 0 0 0 0 0 0 0 -0 -0 0 0 0
0 0 0 0 0 0 0 0 0 0 0 0 0 0 0 0 0 0 0 0 0 0 0 0 0 0 0 0 0 0 0 0 0 0 0 0 0 0 0 -0 -0 -0 0 0
0 0 -0 0 0 0 0 0 0 0 0 0 0 0 0 0 0 0 0 0 0 0 0 0 0 0 0 0 0 0 0 0 0 0 0 -0 0 0 0 0 0 -0 -0 0
0 0 0 0 0 0 0 0 0 0 0 0 0 0 0 0 0 0 0 0 0 0 0 0 0 0 0 0 0 0 0 0 0 0 0 0 -0 0 0 1 0 -0 0 0
0 -0 0 0 0 0 0 0 0 0 0 0 0 0 0 0 0 0 0 0 0 0 0 0 0 0 0 0 0 -0 0 0 0 0 0 0 0 0 0 -0 -0 0 -0 0
0 0 -0 -0 0 0 0 0 0 0 0 0 0 0 0 0 0 0 0 0 0 0 0 0 0 0 0 0 0 0 0 0 0 0 0 0 0 0 0 0 0 0 0 0
0 0 0 0 0 0 0 0 0 0 0 0 0 0 0 0 0 0 0 0 0 0 0 0 0 0 0 0 0 0 0 0 0 0 0 0 0 0 0 0 0 0 0 0
0 0 0 0 -0 0 0 0 0 0 0 0 0 0 0 0 0 0 0 0 0 0 0 0 0 0 0 0 0 0 0 0 0 0 0 0 0 0 0 0 0 0 0 0
0 0 0 0 0 0 0 0 0 0 0 0 0 0 0 0 0 0 0 0 0 0 0 0 0 0 0 0 0 0 0 0 0 0 0 0 0 0 0 0 0 0 0 0
0 0 0 0 0 0 0 0 0 0 0 0 0 0 0 0 0 0 0 0 0 0 0 0 0 0 0 0 0 0 0 0 0 0 0 0 0 0 0 0 0 0 0 0
0 0 0 0 0 0 0 0 0 0 0 0 0 0 0 0 0 0 0 0 0 0 0 0 0 0 0 0 0 0 0 0 0 0 0 0 0 0 0 0 0 0 0 0
0 0 0 0 0 0 0 0 0 0 0 0 0 0 0 0 0 0 0 0 0 0 0 0 0 0 0 0 0 0 0 0 0 0 0 0 0 0 0 0 0 0 0 0
0 0 0 0 0 0 0 0 0 0 0 0 0 0 0 0 0 0 0 0 0 0 0 0 0 0 0 0 0 0 0 0 0 0 0 0 0 0 0 0 0 0 0 0
0 0 -0 0 -0 -0 0 0 0 0 0 0 0 0 0 0 0 0 0 0 0 0 0 0 0 0 0 0 0 0 0 0 0 0 0 0 0 0 0 0 0 0 0 0
0 0 0 -0 0 -0 -0 -0 -0 -0 0 0 0 0 0 0 0 0 0 0 0 0 0 0 0 0 0 0 0 0 0 0 0 0 0 0 0 0 0 0 0 0 0 0
0 0 0 0 0 0 0 0 -0 -0 -0 -0 0 0 0 0 0 0 0 0 0 0 0 0 0 0 0 0 0 0 0 0 0 0 0 0 0 0 0 0 0 0 0 0
Wind_Speed_500mb
5 5 4 4 11 11 16 16 15 5 18 17 15 14 18 17 15 17 17 17 21 8 9 15 25 28 31 37 37 42 48 53 60 63 65 61 56 52 48 48 52 49 43 38
18 8 15 21 23 20 22 21 17 24 19 10 7 10 15 16 14 14 16 18 15 8 6 1 7 15 23 29 34 38 44 50 48 50 54 64 59 54 51 47 50 51 45 36
26 13 15 26 31 30 19 10 17 23 15 13 1 11 13 15 14 12 11 12 8 9 6 7 3 8 16 23 30 38 43 43 48 48 55 62 61 56 53 47 46 51 47 39
18 7 29 7 12 5 16 9 10 13 10 8 3 9 5 11 15 14 15 15 12 9 4 4 10 9 16 21 31 33 34 36 40 48 54 58 60 58 54 48 45 48 48 43
15 23 28 15 9 6 11 23 9 12 12 5 9 7 2 8 12 14 15 16 15 12 7 4 11 8 10 12 23 32 31 30 31 35 42 47 57 60 55 51 46 49 44 40
13 24 28 20 17 8 1 21 12 9 12 19 19 10 4 6 13 15 17 18 17 15 7 7 8 10 7 8 12 18 22 24 26 28 32 39 46 53 54 51 48 45 43 36
21 21 14 11 7 5 18 5 22 18 21 29 18 6 5 4 8 10 14 17 17 16 12 9 6 4 9 2 14 25 22 24 24 21 24 27 31 36 42 47 40 49 44 38
16 27 34 14 10 11 12 18 24 23 22 14 13 12 8 6 10 12 17 20 17 15 16 15 1 7 14 15 7 5 6 14 19 32 12 14 21 26 31 36 44 50 45 36
7 8 8 9 10 5 9 20 21 31 27 5 11 13 5 2 7 13 18 18 17 16 16 22 17 11 6 7 23 26 26 16 16 34 24 21 16 18 24 26 31 34 36 38
6 13 15 8 3 4 9 14 20 27 11 9 14 9 7 7 9 8 15 14 17 15 16 21 25 17 8 4 15 20 17 17 26 25 13 7 23 25 25 26 29 36 39 41
19 28 22 19 13 7 12 11 17 17 3 4 7 6 3 7 7 6 9 16 13 14 14 16 22 27 23 14 10 8 7 20 41 39 33 39 35 34 26 15 35 34 44 45
10 5 17 5 9 11 10 14 16 16 8 12 9 9 6 9 10 11 10 11 15 16 14 13 17 17 23 23 14 8 8 10 4 13 31 57 57 53 56 62 59 45 50 44
15 6 15 15 16 15 11 11 14 14 12 22 21 6 5 5 9 15 14 14 12 14 14 16 16 13 12 17 17 10 3 2 8 17 27 19 22 43 59 67 66 60 43 51
11 10 20 18 11 6 6 8 5 16 4 16 26 9 8 12 19 13 12 13 15 18 15 14 15 17 17 13 10 8 8 4 3 13 4 25 4 24 19 42 61 55 59 47
17 18 22 21 18 17 10 6 5 8 12 16 4 12 18 22 22 17 18 18 16 16 21 21 18 20 18 21 15 12 14 12 11 7 4 20 8 30 19 23 14 33 21 49
14 20 26 26 25 22 18 11 8 6 19 11 3 6 14 21 17 11 16 20 22 29 32 31 29 29 25 23 21 12 11 14 13 8 7 6 15 19 21 15 25 45 52 36
15 15 18 21 20 23 20 8 6 4 10 24 12 4 8 6 8 11 16 15 21 28 31 33 32 29 26 21 18 15 6 4 9 8 9 9 11 13 16 25 25 18 23 35
7 6 6 5 11 16 14 12 7 7 11 18 17 10 3 5 11 17 20 22 22 27 32 33 33 29 28 23 20 18 17 9 7 8 9 4 3 6 11 13 16 19 22 26
7 4 4 6 9 7 8 10 7 6 10 12 13 11 6 10 12 15 18 24 28 30 37 35 36 33 31 26 21 20 19 16 11 5 3 6 7 3 8 11 16 20 22 21
9 7 3 7 12 10 5 3 5 12 17 20 15 12 9 9 10 13 20 28 30 29 30 33 28 30 29 30 24 20 16 15 13 10 12 14 14 19 20 19 16 16 14 17
18 14 10 10 8 11 11 12 15 18 27 28 23 20 14 12 14 11 15 22 28 32 30 34 32 27 26 29 29 25 21 17 15 12 10 16 19 24 25 22 17 17 17 15
21 19 17 15 15 22 19 17 25 33 33 36 36 31 25 24 20 19 22 24 24 32 28 32 32 30 29 31 27 33 30 27 24 21 22 22 24 24 25 24 21 18 14 12
25 27 24 25 28 31 27 33 38 39 40 31 27 24 18 19 20 15 15 21 20 29 30 37 37 42 38 30 28 28 29 35 33 32 33 29 30 30 29 30 29 26 25 24
22 22 20 19 28 30 38 34 37 36 29 28 24 24 20 18 19 13 15 17 20 23 29 32 36 43 33 29 28 30 29 28 27 34 35 38 37 34 39 41 38 38 39 37
15 18 20 21 20 20 21 27 26 27 24 25 25 22 19 19 19 16 14 11 15 15 15 26 33 32 26 27 27 29 30 31 28 29 33 36 41 40 42 40 39 38 35 34
18 16 14 17 18 15 18 21 22 20 19 17 15 17 17 17 16 15 13 13 9 11 11 13 14 18 20 22 22 22 22 24 23 25 28 31 33 34 33 37 40 38 31 27
22 19 15 11 11 15 15 15 19 22 17 15 14 15 15 14 14 13 15 12 13 13 11 14 14 16 14 12 13 16 19 20 21 19 20 22 22 23 22 24 24 22 28 26
Wind_Direction_500mb
293 302 291 261 252 255 262 290 284 51 262 61 29 13 356 12 34 52 56 56 81 107 151 199 202 209 212 212 213 214 219 221 225 225 228 231 234 234 238 243 243 242 242 247
242 231 253 261 259 250 259 263 261 275 271 31 21 16 1 3 18 29 27 37 63 63 53 239 166 205 218 213 217 216 220 224 224 223 221 224 229 234 235 239 241 241 239 236
247 163 270 251 242 240 259 260 272 260 30 338 281 49 357 350 357 6 10 16 2 18 28 11 350 273 235 224 223 223 227 225 226 223 224 223 224 229 232 235 237 240 237 232
257 210 244 261 58 334 271 248 233 278 297 340 258 118 16 354 344 336 344 343 340 319 350 345 344 302 239 243 220 222 224 224 220 218 221 221 222 226 228 231 233 239 239 235
251 233 249 190 176 273 255 235 217 286 302 205 194 195 239 4 353 337 331 335 334 323 291 254 333 285 285 245 227 222 222 222 225 225 220 220 223 224 228 229 231 238 237 233
208 254 253 60 71 47 243 241 55 310 280 306 219 254 134 336 352 354 349 340 352 2 346 257 290 293 296 209 205 221 221 228 224 225 226 219 223 227 229 229 233 236 236 230
229 244 245 71 3 105 226 61 337 342 323 295 222 256 74 252 359 3 10 10 17 18 9 340 273 336 359 323 213 206 202 208 203 222 235 227 223 223 226 230 223 236 232 228
242 246 241 10 187 231 348 326 332 333 334 338 146 146 141 53 29 33 32 27 15 13 14 17 247 130 67 47 51 199 211 213 206 217 208 233 221 218 225 227 225 237 232 223
266 38 63 33 56 27 333 306 322 324 314 280 143 152 170 295 35 23 15 16 21 20 28 48 52 212 255 102 106 112 105 104 196 217 206 193 199 213 218 237 228 232 230 225
276 227 242 208 184 354 330 319 311 318 293 239 206 202 257 302 326 317 358 9 8 17 30 46 55 55 48 167 178 178 164 136 105 109 86 277 227 189 196 207 244 241 238 230
255 271 262 244 213 314 321 327 323 331 78 116 102 88 6 342 10 344 329 358 11 13 13 36 48 54 54 48 182 141 81 247 236 250 254 283 288 271 231 266 229 241 245 237
248 276 267 318 180 311 321 331 342 336 355 128 109 79 37 354 15 26 3 335 0 14 4 20 35 41 62 58 68 139 95 52 82 218 243 241 259 265 268 259 264 234 238 243
268 280 239 256 282 285 286 317 5 345 312 165 109 82 37 28 23 35 34 7 351 3 19 23 27 27 64 73 63 58 287 321 98 72 48 1 298 273 251 258 268 277 271 242
235 255 258 259 257 230 272 330 284 12 117 60 81 61 35 43 46 30 53 31 13 19 21 29 31 13 11 28 66 62 11 7 235 228 233 38 327 346 280 250 245 267 301 289
233 245 259 267 255 258 263 289 260 238 51 132 182 30 39 32 34 27 38 34 11 21 31 33 30 19 22 16 9 27 9 9 16 6 284 242 346 24 87 127 152 254 310 255
244 255 261 256 252 236 235 249 235 110 204 354 80 92 36 28 8 17 32 24 22 22 23 23 20 25 19 9 12 15 16 4 12 21 71 97 248 270 284 255 218 215 207 186
255 268 251 226 219 212 198 177 189 154 135 164 222 103 90 15 11 27 39 28 37 32 24 20 21 24 17 4 1 3 2 337 2 32 61 90 161 182 173 171 185 182 175 172
191 198 178 164 174 192 199 181 168 184 154 159 168 163 151 86 49 38 26 30 38 31 28 24 24 27 20 12 11 9 10 16 332 339 38 42 221 185 191 202 200 185 184 201
141 157 176 181 204 207 183 170 133 152 163 166 168 161 114 66 58 47 38 36 36 28 18 19 23 26 21 20 11 7 10 24 25 26 40 31 360 210 210 207 227 236 248 252
113 107 132 181 189 191 205 170 152 148 177 155 142 118 85 72 80 73 60 50 42 33 21 23 26 26 30 25 25 19 21 27 31 82 101 110 101 108 113 123 136 151 170 191
101 90 105 133 154 180 162 143 131 135 144 134 126 111 97 103 104 82 71 58 42 40 31 25 37 38 35 39 38 36 38 50 58 67 96 114 116 119 120 116 120 124 139 157
99 100 99 121 124 130 134 146 137 136 125 126 112 107 103 91 89 85 78 64 48 54 45 44 39 44 54 49 42 50 57 64 76 85 96 100 106 106 104 100 100 90 100 121
92 87 103 107 112 109 113 124 125 123 123 114 120 113 88 85 88 91 80 64 59 61 51 53 54 57 52 52 52 57 52 62 68 80 86 91 95 98 97 99 100 102 97 96
115 101 94 119 134 130 121 118 126 114 115 119 118 111 99 90 85 82 78 76 65 61 63 54 55 60 57 54 55 59 63 64 59 71 77 86 85 91 92 94 93 93 97 102
147 141 122 103 129 132 147 156 134 125 121 117 110 105 103 100 104 98 89 71 70 71 52 45 51 55 55 58 56 59 65 70 71 76 80 84 87 84 84 85 88 86 85 91
132 127 143 147 126 126 144 133 148 151 140 121 123 126 111 102 87 88 89 86 71 72 60 49 54 48 45 58 61 70 71 69 75 78 77 78 79 79 71 69 72 76 83 72
121 120 125 135 153 148 142 148 159 154 151 136 137 140 127 111 87 100 114 96 82 73 79 56 38 37 39 45 50 61 67 77 96 85 79 80 73 67 62 66 72 67 65 64
Wind_Speed_850mb
5 5 4 4 11 11 16 16 15 5 18 17 15 14 18 17 15 17 17 17 21 8 9 15 25 28 31 37 37 42 48 53 60 63 65 61 56 52 48 48 52 49 43 38
18 8 15 21 23 20 22 21 17 24 19 10 7 10 15 16 14 14 16 18 15 8 6 1 7 15 23 29 34 38 44 50 48 50 54 64 59 54 51 47 50 51 45 36
26 13 15 26 31 30 19 10 17 23 15 13 1 11 13 15 14 12 11 12 8 9 6 7 3 8 16 23 30 38 43 43 48 48 55 62 61 56 53 47 46 51 47 39
18 7 29 7 12 5 16 9 10 13 10 8 3 9 5 11 15 14 15 15 12 9 4 4 10 9 16 21 31 33 34 36 40 48 54 58 60 58 54 48 45 48 48 43
15 23 28 15 9 6 11 23 9 12 12 5 9 7 2 8 12 14 15 16 15 12 7 4 11 8 10 12 23 32 31 30 31 35 42 47 57 60 55 51 46 49 44 40
13 24 28 20 17 8 1 21 12 9 12 19 19 10 4 6 13 15 17 18 17 15 7 7 8 10 7 8 12 18 22 24 26 28 32 39 46 53 54 51 48 45 43 36
21 21 14 11 7 5 18 5 22 18 21 29 18 6 5 4 8 10 14 17 17 16 12 9 6 4 9 2 14 25 22 24 24 21 24 27 31 36 42 47 40 49 44 38
16 27 34 14 10 11 12 18 24 23 22 14 13 12 8 6 10 12 17 20 17 15 16 15 1 7 14 15 7 5 6 14 19 32 12 14 21 26 31 36 44 50 45 36
7 8 8 9 10 5 9 20 21 31 27 5 11 13 5 2 7 13 18 18 17 16 16 22 17 11 6 7 23 26 26 16 16 34 24 21 16 18 24 26 31 34 36 38
6 13 15 8 3 4 9 14 20 27 11 9 14 9 7 7 9 8 15 14 17 15 16 21 25 17 8 4 15 20 17 17 26 25 13 7 23 25 25 26 29 36 39 41
19 28 22 19 13 7 12 11 17 17 3 4 7 6 3 7 7 6 9 16 13 14 14 16 22 27 23 14 10 8 7 20 41 39 33 39 35 34 26 15 35 34 44 45
10 5 17 5 9 11 10 14 16 16 8 12 9 9 6 9 10 11 10 11 15 16 14 13 17 17 23 23 14 8 8 10 4 13 31 57 57 53 56 62 59 45 50 44
15 6 15 15 16 15 11 11 14 14 12 22 21 6 5 5 9 15 14 14 12 14 14 16 16 13 12 17 17 10 3 2 8 17 27 19 22 43 59 67 66 60 43 51
11 10 20 18 11 6 6 8 5 16 4 16 26 9 8 12 19 13 12 13 15 18 15 14 15 17 17 13 10 8 8 4 3 13 4 25 4 24 19 42 61 55 59 47
17 18 22 21 18 17 10 6 5 8 12 16 4 12 18 22 22 17 18 18 16 16 21 21 18 20 18 21 15 12 14 12 11 7 4 20 8 30 19 23 14 33 21 49
14 20 26 26 25 22 18 11 8 6 19 11 3 6 14 21 17 11 16 20 22 29 32 31 29 29 25 23 21 12 11 14 13 8 7 6 15 19 21 15 25 45 52 36
15 15 18 21 20 23 20 8 6 4 10 24 12 4 8 6 8 11 16 15 21 28 31 33 32 29 26 21 18 15 6 4 9 8 9 9 11 13 16 25 25 18 23 35
7 6 6 5 11 16 14 12 7 7 11 18 17 10 3 5 11 17 20 22 22 27 32 33 33 29 28 23 20 18 17 9 7 8 9 4 3 6 11 13 16 19 22 26
7 4 4 6 9 7 8 10 7 6 10 12 13 11 6 10 12 15 18 24 28 30 37 35 36 33 31 26 21 20 19 16 11 5 3 6 7 3 8 11 16 20 22 21
9 7 3 7 12 10 5 3 5 12 17 20 15 12 9 9 10 13 20 28 30 29 30 33 28 30 29 30 24 20 16 15 13 10 12 14 14 19 20 19 16 16 14 17
18 14 10 10 8 11 11 12 15 18 27 28 23 20 14 12 14 11 15 22 28 32 30 34 32 27 26 29 29 25 21 17 15 12 10 16 19 24 25 22 17 17 17 15
21 19 17 15 15 22 19 17 25 33 33 36 36 31 25 24 20 19 22 24 24 32 28 32 32 30 29 31 27 33 30 27 24 21 22 22 24 24 25 24 21 18 14 12
25 27 24 25 28 31 27 33 38 39 40 31 27 24 18 19 20 15 15 21 20 29 30 37 37 42 38 30 28 28 29 35 33 32 33 29 30 30 29 30 29 26 25 24
22 22 20 19 28 30 38 34 37 36 29 28 24 24 20 18 19 13 15 17 20 23 29 32 36 43 33 29 28 30 29 28 27 34 35 38 37 34 39 41 38 38 39 37
15 18 20 21 20 20 21 27 26 27 24 25 25 22 19 19 19 16 14 11 15 15 15 26 33 32 26 27 27 29 30 31 28 29 33 36 41 40 42 40 39 38 35 34
18 16 14 17 18 15 18 21 22 20 19 17 15 17 17 17 16 15 13 13 9 11 11 13 14 18 20 22 22 22 22 24 23 25 28 31 33 34 33 37 40 38 31 27
22 19 15 11 11 15 15 15 19 22 17 15 14 15 15 14 14 13 15 12 13 13 11 14 14 16 14 12 13 16 19 20 21 19 20 22 22 23 22 24 24 22 28 26
Wind_Direction_850mb
293 302 291 261 252 255 262 290 284 51 262 61 29 13 356 12 34 52 56 56 81 107 151 199 202 209 212 212 213 214 219 221 225 225 228 231 234 234 238 243 243 242 242 247
242 231 253 261 259 250 259 263 261 275 271 31 21 16 1 3 18 29 27 37 63 63 53 239 166 205 218 213 217 216 220 224 224 223 221 224 229 234 235 239 241 241 239 236
247 163 270 251 242 240 259 260 272 260 30 338 281 49 357 350 357 6 10 16 2 18 28 11 350 273 235 224 223 223 227 225 226 223 224 223 224 229 232 235 237 240 237 232
257 210 244 261 58 334 271 248 233 278 297 340 258 118 16 354 344 336 344 343 340 319 350 345 344 302 239 243 220 222 224 224 220 218 221 221 222 226 228 231 233 239 239 235
251 233 249 190 176 273 255 235 217 286 302 205 194 195 239 4 353 337 331 335 334 323 291 254 333 285 285 245 227 222 222 222 225 225 220 220 223 224 228 229 231 238 237 233
208 254 253 60 71 47 243 241 55 310 280 306 219 254 134 336 352 354 349 340 352 2 346 257 290 293 296 209 205 221 221 228 224 225 226 219 223 227 229 229 233 236 236 230
229 244 245 71 3 105 226 61 337 342 323 295 222 256 74 252 359 3 10 10 17 18 9 340 273 336 359 323 213 206 202 208 203 222 235 227 223 223 226 230 223 236 232 228
242 246 241 10 187 231 348 326 332 333 334 338 146 146 141 53 29 33 32 27 15 13 14 17 247 130 67 47 51 199 211 213 206 217 208 233 221 218 225 227 225 237 232 223
266 38 63 33 56 27 333 306 322 324 314 280 143 152 170 295 35 23 15 16 21 20 28 48 52 212 255 102 106 112 105 104 196 217 206 193 199 213 218 237 228 232 230 225
276 227 242 208 184 354 330 319 311 318 293 239 206 202 257 302 326 317 358 9 8 17 30 46 55 55 48 167 178 178 164 136 105 109 86 277 227 189 196 207 244 241 238 230
255 271 262 244 213 314 321 327 323 331 78 116 102 88 6 342 10 344 329 358 11 13 13 36 48 54 54 48 182 141 81 247 236 250 254 283 288 271 231 266 229 241 245 237
248 276 267 318 180 311 321 331 342 336 355 128 109 79 37 354 15 26 3 335 0 14 4 20 35 41 62 58 68 139 95 52 82 218 243 241 259 265 268 259 264 234 238 243
268 280 239 256 282 285 286 317 5 345 312 165 109 82 37 28 23 35 34 7 351 3 19 23 27 27 64 73 63 58 287 321 98 72 48 1 298 273 251 258 268 277 271 242
235 255 258 259 257 230 272 330 284 12 117 60 81 61 35 43 46 30 53 31 13 19 21 29 31 13 11 28 66 62 11 7 235 228 233 38 327 346 280 250 245 267 301 289
233 245 259 267 255 258 263 289 260 238 51 132 182 30 39 32 34 27 38 34 11 21 31 33 30 19 22 16 9 27 9 9 16 6 284 242 346 24 87 127 152 254 310 255
244 255 261 256 252 236 235 249 235 110 204 354 80 92 36 28 8 17 32 24 22 22 23 23 20 25 19 9 12 15 16 4 12 21 71 97 248 270 284 255 218 215 207 186
255 268 251 226 219 212 198 177 189 154 135 164 222 103 90 15 11 27 39 28 37 32 24 20 21 24 17 4 1 3 2 337 2 32 61 90 161 182 173 171 185 182 175 172
191 198 178 164 174 192 199 181 168 184 154 159 168 163 151 86 49 38 26 30 38 31 28 24 24 27 20 12 11 9 10 16 332 339 38 42 221 185 191 202 200 185 184 201
141 157 176 181 204 207 183 170 133 152 163 166 168 161 114 66 58 47 38 36 36 28 18 19 23 26 21 20 11 7 10 24 25 26 40 31 360 210 210 207 227 236 248 252
113 107 132 181 189 191 205 170 152 148 177 155 142 118 85 72 80 73 60 50 42 33 21 23 26 26 30 25 25 19 21 27 31 82 101 110 101 108 113 123 136 151 170 191
101 90 105 133 154 180 162 143 131 135 144 134 126 111 97 103 104 82 71 58 42 40 31 25 37 38 35 39 38 36 38 50 58 67 96 114 116 119 120 116 120 124 139 157
99 100 99 121 124 130 134 146 137 136 125 126 112 107 103 91 89 85 78 64 48 54 45 44 39 44 54 49 42 50 57 64 76 85 96 100 106 106 104 100 100 90 100 121
92 87 103 107 112 109 113 124 125 123 123 114 120 113 88 85 88 91 80 64 59 61 51 53 54 57 52 52 52 57 52 62 68 80 86 91 95 98 97 99 100 102 97 96
115 101 94 119 134 130 121 118 126 114 115 119 118 111 99 90 85 82 78 76 65 61 63 54 55 60 57 54 55 59 63 64 59 71 77 86 85 91 92 94 93 93 97 102
147 141 122 103 129 132 147 156 134 125 121 117 110 105 103 100 104 98 89 71 70 71 52 45 51 55 55 58 56 59 65 70 71 76 80 84 87 84 84 85 88 86 85 91
132 127 143 147 126 126 144 133 148 151 140 121 123 126 111 102 87 88 89 86 71 72 60 49 54 48 45 58 61 70 71 69 75 78 77 78 79 79 71 69 72 76 83 72
121 120 125 135 153 148 142 148 159 154 151 136 137 140 127 111 87 100 114 96 82 73 79 56 38 37 39 45 50 61 67 77 96 85 79 80 73 67 62 66 72 67 65 64